RH
24 20 18 20 21 22 39 58 83 62 55 34 30 27 23 29 38 42 43 50 72 93 100 100 91 66 55 55 53 51 51 54 63 64 62 64 64 66 59 59 62 59 62 68
35 23 20 21 20 20 20 20 19 21 21 14 16 19 18 18 22 37 42 48 67 74 78 84 77 63 54 59 56 56 56 56 55 58 58 65 64 62 61 56 59 64 68 71
57 33 32 55 37 29 42 26 25 39 28 24 25 23 23 27 34 43 46 53 62 64 67 68 59 51 53 50 53 52 58 52 55 57 59 63 58 58 59 62 60 64 69 72
66 49 81 35 21 21 24 29 26 22 24 27 27 26 42 38 40 41 51 56 57 58 60 58 49 46 50 45 49 52 52 50 55 59 57 58 59 56 58 59 66 66 68 74
68 59 40 30 20 19 22 24 17 23 24 26 22 31 46 37 37 59 60 54 59 56 53 46 42 38 39 42 45 48 50 51 51 53 56 64 65 65 59 58 63 66 64 73
61 66 66 39 23 17 20 46 22 40 46 56 64 50 72 46 51 52 52 54 55 49 44 40 39 37 38 41 45 48 48 49 49 51 50 54 60 62 58 55 55 57 66 72
61 68 50 29 22 21 71 59 38 41 50 59 91 85 64 56 56 54 53 51 48 42 40 39 38 37 39 39 43 42 41 43 46 46 47 53 56 53 53 57 67 71 72 72
72 68 72 22 22 37 42 43 43 37 61 70 62 58 56 52 50 47 47 44 37 39 40 38 36 36 34 36 35 35 35 38 43 47 43 44 56 54 54 57 65 73 74 81
66 93 63 42 52 53 65 60 54 54 56 54 58 55 50 50 49 46 41 36 35 39 42 39 36 36 37 34 30 33 36 37 43 42 44 53 66 63 66 67 76 84 81 84
47 38 35 36 37 44 38 45 48 48 47 50 55 50 52 47 47 47 44 40 39 41 42 44 39 35 33 33 29 31 37 40 43 50 50 58 68 69 77 82 83 86 86 89
55 50 50 47 34 43 50 47 59 58 48 50 55 57 56 59 58 50 43 38 39 44 46 41 36 35 33 33 32 36 43 45 51 54 56 60 80 86 85 92 86 94 90 89
80 53 62 66 75 65 80 59 55 64 64 58 62 75 68 66 56 44 41 41 46 45 43 38 37 38 39 39 41 45 51 57 64 61 64 62 66 83 62 65 60 70 64 74
53 47 57 56 56 54 56 54 57 63 60 57 52 48 50 54 52 54 49 51 50 52 48 48 52 57 54 57 59 62 62 60 66 68 69 74 76 79 87 77 55 55 58 59
40 70 73 76 88 62 68 70 70 66 55 54 53 52 53 57 72 89 93 91 88 87 88 87 89 92 88 77 80 90 82 77 82 87 88 87 86 86 86 82 84 83 64 63
76 81 60 74 69 68 62 64 72 65 60 58 54 55 55 64 73 83 90 90 90 90 92 93 94 94 90 90 89 88 85 89 89 90 89 85 86 84 82 80 80 78 73 76
34 53 66 81 94 89 71 73 71 81 79 56 56 59 60 62 66 69 70 75 85 89 95 94 92 93 89 90 91 90 84 74 70 76 77 77 81 79 74 75 74 75 77 83
39 82 95 98 97 95 78 69 80 87 58 57 58 56 54 57 60 65 75 88 90 90 92 92 95 92 90 91 88 79 77 66 72 65 70 70 74 76 74 77 79 78 81 84
33 44 71 85 94 95 87 84 84 68 57 55 56 64 70 71 78 92 93 91 90 92 88 90 90 90 89 61 56 64 66 60 60 69 67 81 75 68 80 77 72 76 80 76
31 56 66 76 81 97 94 95 80 64 77 81 79 80 82 88 89 90 89 92 92 90 91 78 74 66 56 65 70 65 72 72 64 65 72 74 85 77 84 86 82 84 81 82
45 58 78 92 98 97 98 87 82 84 83 82 86 91 92 91 89 90 89 88 81 73 69 61 64 55 55 60 70 66 75 79 67 80 87 84 90 91 90 82 81 86 88 88
81 79 94 98 98 99 92 84 85 86 87 84 86 90 91 91 89 88 90 80 82 71 58 69 57 58 52 55 62 81 84 86 87 86 88 91 91 88 90 90 89 88 89 89
100 100 100 98 97 94 87 83 86 90 89 89 89 88 91 93 91 88 91 79 74 80 67 62 60 80 64 77 68 86 77 78 85 88 90 91 91 92 91 90 92 89 89 89
99 97 96 97 94 91 90 92 91 90 90 90 90 90 86 84 81 83 82 77 71 78 66 76 82 81 79 90 88 88 86 85 87 88 90 91 92 92 91 90 91 89 90 89
97 98 98 97 90 91 96 94 91 90 90 88 87 84 80 85 82 70 69 76 78 82 88 87 85 82 85 91 90 90 89 88 89 91 88 82 93 91 91 92 92 89 89 88
96 97 96 96 91 88 90 90 90 91 90 84 86 84 75 70 83 81 82 82 82 86 89 88 84 84 93 88 88 90 90 90 92 88 91 91 90 93 91 91 93 89 89 89
96 95 95 96 79 80 80 79 81 83 80 89 86 86 84 82 82 83 84 84 81 82 91 89 87 87 89 88 88 88 88 85 88 92 91 90 92 90 92 92 92 90 90 90
97 97 96 89 76 76 78 77 84 84 82 88 86 86 84 85 86 84 85 88 85 86 95 89 86 85 85 86 86 86 87 86 84 88 89 89 91 91 94 93 92 90 91 90
Wind_Speed
18 21 23 24 21 21 15 14 9 15 19 17 17 16 14 6 16 18 17 18 16 12 8 7 4 4 5 4 4 3 4 4 6 6 6 6 6 7 8 9 7 9 10 9
17 19 21 23 23 23 20 20 18 20 23 18 17 11 13 13 11 18 17 19 19 16 13 8 7 5 6 5 4 5 4 5 6 6 6 6 6 8 8 9 8 8 8 8
15 18 19 15 21 20 16 18 16 17 21 17 18 16 13 13 7 17 18 22 20 18 14 10 7 6 5 6 5 5 4 6 7 6 6 6 8 8 9 8 8 8 9 10
11 14 18 17 17 20 20 18 18 18 16 14 15 14 3 3 2 9 17 20 16 14 12 10 8 7 6 6 5 5 6 6 6 6 6 7 7 8 8 7 7 9 10 10
13 14 18 23 23 17 18 20 20 15 14 16 14 5 10 4 3 19 19 17 14 13 12 10 8 7 8 7 7 6 5 5 6 4 5 6 7 6 7 8 7 8 10 11
15 16 21 23 25 23 17 15 16 7 10 13 23 12 9 16 17 20 21 17 15 14 12 10 8 7 7 7 7 5 5 5 5 5 5 6 5 7 7 8 9 9 10 11
17 18 16 24 23 24 3 12 6 7 6 6 11 6 16 18 17 17 17 17 15 13 10 10 8 7 8 7 6 4 5 5 6 6 6 7 6 7 9 9 9 10 10 11
13 19 21 10 16 17 12 11 6 7 10 11 13 15 14 16 17 17 17 16 15 12 11 9 8 8 8 7 6 5 6 6 8 5 6 7 8 7 9 10 10 10 11 9
8 3 15 14 6 14 6 11 0 6 9 11 13 15 15 14 14 14 15 12 12 12 11 9 8 8 8 4 6 6 7 6 8 7 7 6 7 8 7 8 7 7 8 8
14 17 15 18 15 17 7 4 5 2 10 13 15 13 17 15 12 11 9 11 12 13 12 10 8 8 7 4 7 8 8 6 7 6 6 6 6 5 5 5 5 6 7 8
16 15 16 19 20 12 10 6 4 3 6 10 16 15 14 12 14 9 8 11 11 11 10 10 9 8 7 6 7 7 8 6 6 5 6 6 6 4 3 2 2 4 5 6
12 15 10 17 14 3 7 11 7 10 10 13 16 16 17 13 12 10 10 10 9 10 10 11 10 9 9 8 7 6 6 6 4 5 5 5 5 2 7 6 6 7 13 10
14 15 21 11 8 6 4 7 10 9 11 15 16 14 14 13 9 10 10 9 10 10 9 9 10 9 8 7 7 7 6 6 5 5 5 5 4 4 4 5 11 12 13 17
15 14 14 7 3 6 9 10 13 13 11 10 11 13 12 11 11 11 10 10 11 12 11 9 8 6 5 6 5 3 5 6 4 3 3 3 3 3 3 5 6 6 9 15
7 17 12 7 8 6 12 13 14 13 13 12 12 12 12 13 12 11 9 9 9 9 7 6 6 4 3 4 5 4 4 3 2 2 1 2 2 3 3 4 5 6 6 7
6 19 9 11 11 11 12 14 14 13 13 13 13 13 13 12 13 12 12 11 10 8 5 4 6 4 1 2 6 4 4 2 1 3 3 3 2 3 4 5 5 6 6 6
6 8 9 8 10 14 15 12 11 12 13 13 14 14 14 14 13 13 11 7 9 8 5 5 5 2 1 3 5 3 3 4 0 3 3 3 3 3 4 4 5 5 6 5
12 11 15 14 13 11 12 13 12 13 13 13 14 12 12 12 12 12 10 8 8 6 7 7 5 4 4 4 1 2 2 3 3 2 3 2 2 3 3 4 5 6 6 7
19 10 14 15 14 11 11 11 13 11 9 11 13 11 10 11 12 11 10 7 6 8 6 7 8 6 6 1 5 3 3 2 2 4 3 1 3 3 3 3 4 5 6 6
9 12 16 16 14 13 11 8 12 12 11 14 14 12 12 10 11 11 9 8 7 5 11 9 8 6 5 4 4 3 2 2 1 2 2 2 2 3 2 4 5 5 5 6
12 16 15 15 13 11 11 12 14 13 12 13 13 12 11 11 10 10 9 7 6 7 9 8 6 5 5 4 3 3 2 1 1 2 2 2 2 3 3 3 3 5 5 6
9 11 12 14 13 13 12 12 13 12 12 11 11 11 12 11 9 8 1 1 8 6 6 5 3 5 5 1 2 3 2 1 1 1 2 2 2 2 3 3 3 4 5 5
7 11 13 13 14 14 12 11 11 11 12 12 12 12 11 9 8 8 6 7 8 7 6 5 7 6 4 3 4 3 3 1 0 0 1 1 2 2 2 3 3 4 5 5
10 10 11 12 13 12 12 10 10 9 9 9 9 9 9 8 7 5 6 9 11 8 4 7 7 6 4 3 3 3 2 2 2 1 0 1 1 1 2 2 2 4 4 5
9 9 11 12 11 8 11 11 10 9 9 9 9 6 8 6 6 5 7 6 11 7 7 8 7 6 4 4 4 3 2 2 3 1 2 2 2 1 2 2 2 4 5 5
9 7 7 8 7 8 9 9 8 8 8 8 7 6 5 4 5 7 7 8 7 6 8 7 5 4 5 3 4 3 2 2 4 4 3 2 1 2 2 2 2 4 4 4
7 7 6 7 7 8 8 7 8 9 8 8 8 7 7 6 6 7 7 7 7 6 7 7 7 6 6 5 4 3 3 3 2 2 2 1 1 1 2 2 2 4 4 4
Wind_Direction
273 276 279 285 280 273 255 236 220 283 290 284 285 282 300 238 191 185 172 147 134 122 95 81 58 114 110 88 88 72 72 62 55 39 23 22 357 337 356 355 353 350 349 340
274 270 271 272 275 268 271 280 275 280 280 286 288 305 310 295 294 175 164 145 141 139 139 140 154 162 126 117 96 78 63 61 53 35 16 20 351 3 1 351 6 9 348 352
258 269 268 269 254 275 275 267 260 260 265 277 279 284 278 286 315 164 192 136 139 142 144 155 147 151 132 120 106 101 87 68 51 28 17 19 15 2 353 359 4 4 358 4
272 284 272 260 264 264 275 264 259 258 259 278 274 266 68 274 222 80 121 122 132 133 134 138 146 129 142 125 116 93 67 55 62 25 13 26 15 7 352 358 12 6 8 2
259 257 273 282 267 268 265 273 280 294 300 301 278 283 83 339 157 115 116 122 122 125 138 135 140 148 145 127 107 87 72 60 52 26 25 38 6 6 348 13 12 15 8 358
247 246 251 252 262 262 284 280 283 8 319 322 336 239 84 66 81 97 102 111 124 125 134 132 133 154 128 108 94 80 76 74 61 35 36 45 10 14 10 22 14 16 6 2
235 240 256 262 280 300 159 273 342 326 303 357 30 67 112 104 102 106 116 122 129 140 131 125 136 136 116 106 97 105 93 78 67 26 46 47 35 23 25 20 19 13 7 3
260 255 252 276 274 269 302 322 343 233 78 95 112 116 114 122 121 119 123 137 130 123 125 132 134 118 104 97 96 92 83 74 71 24 47 43 40 30 36 24 17 13 3 358
201 257 312 304 286 302 189 260 223 105 113 128 133 126 121 120 123 126 138 132 126 121 118 107 101 97 99 94 106 96 79 72 76 26 58 58 52 35 41 27 17 13 3 354
286 279 296 290 236 232 268 289 126 14 155 155 140 134 135 127 127 133 131 131 132 129 122 112 101 97 102 98 88 85 80 52 72 67 40 61 62 40 53 35 12 10 3 356
283 292 305 279 283 218 216 226 126 132 190 157 130 135 128 124 127 152 142 138 136 124 128 123 117 105 90 73 93 93 86 57 55 57 43 44 84 54 44 105 40 30 11 1
272 282 241 268 311 320 186 202 207 157 154 139 138 143 143 146 151 153 139 128 132 134 126 124 116 99 84 73 57 85 86 90 27 56 46 37 27 53 66 52 62 54 28 21
266 283 293 279 205 178 160 155 135 130 145 157 159 149 128 126 137 129 131 140 137 126 120 109 99 85 77 65 74 54 62 69 71 50 46 36 26 23 4 360 14 19 34 21
267 317 275 324 179 149 127 115 115 127 122 112 117 115 128 122 99 92 86 87 84 83 80 87 91 78 52 62 63 66 110 55 71 59 36 25 16 15 6 0 360 360 13 24
172 254 229 153 99 105 131 133 137 139 130 123 128 133 131 132 132 118 102 94 94 101 104 109 109 98 89 94 65 30 71 41 74 77 49 40 23 10 5 6 3 353 356 21
200 195 143 147 143 164 155 159 148 138 148 155 142 144 146 147 139 140 142 140 144 140 122 126 112 121 169 227 153 167 117 35 22 73 50 18 27 18 9 5 1 355 359 15
293 132 146 152 164 171 175 158 149 157 167 153 152 149 149 145 146 149 139 127 112 126 133 110 114 106 24 311 279 142 131 123 305 68 58 47 356 20 15 0 356 356 356 1
272 215 171 164 171 170 170 155 156 178 163 156 152 148 142 150 146 128 127 127 126 139 140 130 142 171 223 227 183 100 92 97 83 62 80 30 348 11 36 359 355 354 351 352
237 161 163 160 155 161 158 157 178 159 130 125 123 126 121 120 127 129 135 143 141 143 142 166 166 189 150 101 304 107 90 62 81 85 354 36 25 1 9 5 353 353 351 348
169 127 118 124 134 148 154 149 120 115 124 121 117 116 122 129 135 139 144 158 182 179 160 157 186 154 140 168 290 122 107 125 79 99 119 337 49 332 8 10 356 350 348 345
106 121 128 132 137 139 133 133 124 128 130 131 134 136 138 138 143 149 165 155 136 157 151 162 177 153 171 157 235 92 106 125 89 66 48 13 352 360 2 1 360 343 343 346
109 119 123 120 124 123 127 126 121 125 131 130 128 135 138 145 154 177 114 153 149 145 149 179 160 40 114 161 139 114 126 90 64 16 62 24 10 358 345 346 357 334 341 347
99 117 119 124 127 123 113 115 124 134 142 141 145 148 158 158 167 173 174 154 138 183 195 120 114 118 143 233 125 129 126 175 223 351 70 74 322 350 323 331 339 339 343 345
108 106 109 115 121 121 125 131 132 132 130 136 144 161 154 161 174 197 166 142 141 175 119 138 137 158 210 174 151 132 178 171 200 188 320 179 275 312 329 336 350 342 344 332
117 116 119 126 128 130 133 140 128 131 141 146 155 183 168 177 172 147 127 133 138 153 131 130 147 169 233 189 170 171 177 192 108 83 311 341 312 337 326 352 1 347 330 343
119 125 130 141 137 139 144 152 149 155 157 148 162 172 179 157 127 127 134 139 158 198 142 145 165 194 233 200 167 172 201 168 185 184 211 256 331 349 1 16 359 344 335 341
127 139 153 127 136 144 155 167 153 164 163 160 163 168 174 155 150 149 149 148 161 213 152 158 174 190 232 199 177 199 197 213 194 175 126 270 334 358 27 18 2 334 340 323